TimeMST,TemperatureF,Dew PointF,Humidity,Sea Level PressureIn,VisibilityMPH,Wind Direction,Wind SpeedMPH,Gust SpeedMPH,PrecipitationIn,Events,Conditions,WindDirDegrees,DateUTC
12:53 AM,12.9,8.1,81,30.37,10.0,SE,4.6,-,N/A,,Clear,130,2013-02-28 07:53:00
1:53 AM,14.0,7.0,74,30.36,10.0,Calm,Calm,-,N/A,,Clear,0,2013-02-28 08:53:00
2:53 AM,10.9,8.1,88,30.35,10.0,West,3.5,-,N/A,,Clear,270,2013-02-28 09:53:00
3:53 AM,10.0,5.0,80,30.37,10.0,SSW,5.8,-,N/A,,Clear,200,2013-02-28 10:53:00
4:53 AM,9.0,5.0,84,30.38,10.0,South,5.8,-,N/A,,Clear,190,2013-02-28 11:53:00
5:53 AM,8.1,3.9,83,30.41,10.0,Calm,Calm,-,N/A,,Clear,0,2013-02-28 12:53:00
6:53 AM,12.9,7.0,77,30.40,10.0,South,8.1,-,N/A,,Clear,170,2013-02-28 13:53:00
7:53 AM,15.1,9.0,77,30.40,10.0,ESE,3.5,-,N/A,,Scattered Clouds,110,2013-02-28 14:53:00
8:53 AM,17.1,12.0,81,30.40,10.0,West,4.6,-,N/A,,Mostly Cloudy,260,2013-02-28 15:53:00
9:53 AM,21.0,12.0,68,30.39,10.0,Calm,Calm,-,N/A,,Scattered Clouds,0,2013-02-28 16:53:00
10:53 AM,25.0,14.0,63,30.39,10.0,Calm,Calm,-,N/A,,Scattered Clouds,0,2013-02-28 17:53:00
11:53 AM,30.0,16.0,56,30.38,10.0,Calm,Calm,-,N/A,,Clear,0,2013-02-28 18:53:00
12:53 PM,32.0,18.0,56,30.36,10.0,Calm,Calm,-,N/A,,Clear,0,2013-02-28 19:53:00
1:53 PM,35.1,19.0,52,30.33,10.0,Calm,Calm,-,N/A,,Clear,0,2013-02-28 20:53:00
2:53 PM,36.0,17.1,46,30.34,10.0,Calm,Calm,-,N/A,,Clear,0,2013-02-28 21:53:00
3:53 PM,35.1,19.0,52,30.36,10.0,NE,3.5,-,N/A,,Clear,50,2013-02-28 22:53:00
4:53 PM,34.0,17.1,50,30.36,10.0,Calm,Calm,-,N/A,,Clear,0,2013-02-28 23:53:00
5:53 PM,27.0,17.1,66,30.40,10.0,SE,5.8,-,N/A,,Clear,130,2013-03-01 00:53:00
6:53 PM,27.0,14.0,58,30.40,10.0,ESE,5.8,-,N/A,,Clear,120,2013-03-01 01:53:00
7:53 PM,24.1,14.0,65,30.42,10.0,Calm,Calm,-,N/A,,Clear,0,2013-03-01 02:53:00
8:53 PM,19.0,10.9,71,30.44,10.0,Calm,Calm,-,N/A,,Clear,0,2013-03-01 03:53:00
9:53 PM,21.0,15.1,78,30.44,10.0,Calm,Calm,-,N/A,,Clear,0,2013-03-01 04:53:00
10:53 PM,19.9,10.9,68,30.43,10.0,SE,5.8,-,N/A,,Clear,130,2013-03-01 05:53:00
11:53 PM,16.0,9.0,74,30.43,10.0,SW,4.6,-,N/A,,Clear,220,2013-03-01 06:53:00